TimeEDT,TemperatureF,Dew PointF,Humidity,Sea Level PressureIn,VisibilityMPH,Wind Direction,Wind SpeedMPH,Gust SpeedMPH,PrecipitationIn,Events,Conditions,WindDirDegrees,DateUTC
12:15 AM,58.3,53.8,85,29.86,10.0,South,4.6,-,N/A,,Clear,180,2013-08-02 04:15:00
12:36 AM,57.4,53.6,87,29.86,10.0,Calm,Calm,-,N/A,,Scattered Clouds,0,2013-08-02 04:36:00
12:55 AM,57.7,53.6,86,29.86,10.0,Calm,Calm,-,N/A,,Clear,0,2013-08-02 04:55:00
1:16 AM,57.4,53.8,88,29.86,10.0,Calm,Calm,-,N/A,,Clear,0,2013-08-02 05:16:00
1:35 AM,58.1,54.5,88,29.85,10.0,Calm,Calm,-,N/A,,Scattered Clouds,0,2013-08-02 05:35:00
1:56 AM,56.8,53.8,89,29.84,10.0,Calm,Calm,-,N/A,,Scattered Clouds,0,2013-08-02 05:56:00
2:15 AM,56.3,53.6,91,29.84,10.0,Calm,Calm,-,N/A,,Clear,0,2013-08-02 06:15:00
2:36 AM,55.4,52.9,91,29.83,10.0,Calm,Calm,-,N/A,,Clear,0,2013-08-02 06:36:00
2:55 AM,55.4,53.1,92,29.82,10.0,Calm,Calm,-,N/A,,Clear,0,2013-08-02 06:55:00
3:16 AM,54.5,52.5,93,29.82,10.0,Calm,Calm,-,N/A,,Clear,0,2013-08-02 07:16:00
3:35 AM,55.4,53.6,94,29.82,10.0,Calm,Calm,-,N/A,,Clear,0,2013-08-02 07:35:00
3:56 AM,55.4,53.6,94,29.82,10.0,Calm,Calm,-,N/A,,Clear,0,2013-08-02 07:56:00
4:16 AM,55.4,53.4,93,29.82,10.0,Calm,Calm,-,N/A,,Mostly Cloudy,0,2013-08-02 08:16:00
4:35 AM,54.3,52.7,94,29.82,10.0,Calm,Calm,-,N/A,,Overcast,0,2013-08-02 08:35:00
4:56 AM,56.1,53.1,89,29.81,10.0,Calm,Calm,-,N/A,,Scattered Clouds,0,2013-08-02 08:56:00
5:16 AM,57.2,53.4,87,29.82,10.0,West,6.9,-,N/A,,Mostly Cloudy,270,2013-08-02 09:16:00
5:36 AM,56.7,53.4,89,29.82,10.0,Calm,Calm,-,0.01,Rain,Rain,0,2013-08-02 09:36:00
5:55 AM,56.3,53.6,91,29.80,10.0,Calm,Calm,-,0.02,Rain,Light Rain,0,2013-08-02 09:55:00
6:50 AM,55.4,53.6,94,29.62,10.0,Calm,Calm,-,N/A,,Overcast,0,2013-08-02 10:50:00
7:50 AM,55.4,53.6,94,29.82,10.0,WSW,4.6,-,N/A,,Scattered Clouds,240,2013-08-02 11:50:00
8:55 AM,59.0,53.6,82,29.82,10.0,WNW,4.6,-,N/A,,Clear,290,2013-08-02 12:55:00
9:50 AM,62.6,53.6,72,29.82,10.0,West,9.2,-,N/A,,Clear,280,2013-08-02 13:50:00
10:50 AM,64.4,55.4,73,29.82,10.0,WNW,5.8,-,N/A,,Scattered Clouds,300,2013-08-02 14:50:00
11:50 AM,66.2,53.6,64,29.83,10.0,NNW,4.6,-,N/A,,Mostly Cloudy,330,2013-08-02 15:50:00
12:50 PM,68.0,51.8,56,29.83,10.0,NNW,3.5,-,N/A,,Overcast,340,2013-08-02 16:50:00
1:50 PM,68.0,53.6,60,29.83,10.0,ENE,8.1,-,N/A,,Mostly Cloudy,70,2013-08-02 17:50:00
2:50 PM,68.0,55.4,64,29.84,10.0,NE,11.5,-,N/A,,Mostly Cloudy,40,2013-08-02 18:50:00
3:50 PM,69.8,53.6,56,29.84,10.0,ENE,10.4,16.1,N/A,,Mostly Cloudy,60,2013-08-02 19:50:00
4:50 PM,68.0,53.6,60,29.86,10.0,NE,9.2,-,N/A,,Mostly Cloudy,40,2013-08-02 20:50:00
5:50 PM,69.8,55.4,60,29.86,10.0,NE,6.9,-,N/A,,Mostly Cloudy,40,2013-08-02 21:50:00
6:50 PM,71.6,50.0,46,29.87,10.0,NW,17.3,-,N/A,,Scattered Clouds,310,2013-08-02 22:50:00
7:55 PM,68.0,-9999,N/A,29.89,10.0,NW,11.5,-,N/A,,Partly Cloudy,310,2013-08-02 23:55:00
8:50 PM,66.2,50.0,56,29.91,10.0,NW,5.8,-,N/A,,Clear,320,2013-08-03 00:50:00
9:45 PM,60.8,50.0,68,29.92,10.0,Calm,Calm,-,N/A,,Clear,0,2013-08-03 01:45:00
10:16 PM,60.8,50.0,68,29.93,10.0,Calm,Calm,-,N/A,,Clear,0,2013-08-03 02:16:00
10:36 PM,60.1,50.0,69,29.94,10.0,Calm,Calm,-,N/A,,Clear,0,2013-08-03 02:36:00
10:55 PM,59.0,50.0,72,29.94,10.0,WNW,4.6,-,N/A,,Clear,290,2013-08-03 02:55:00
11:16 PM,58.5,50.0,73,29.95,10.0,Calm,Calm,-,N/A,,Clear,0,2013-08-03 03:16:00
11:35 PM,58.1,50.2,75,29.95,10.0,WNW,4.6,-,N/A,,Clear,300,2013-08-03 03:35:00
11:56 PM,57.0,50.0,77,29.95,10.0,WNW,3.5,-,N/A,,Clear,290,2013-08-03 03:56:00